TimeCDT,TemperatureF,Dew PointF,Humidity,Sea Level PressureIn,VisibilityMPH,Wind Direction,Wind SpeedMPH,Gust SpeedMPH,PrecipitationIn,Events,Conditions,WindDirDegrees,DateUTC
12:15 AM,33.8,26.6,75,30.27,10.0,NNW,15.0,20.7,N/A,,Scattered Clouds,340,2013-04-24 05:15:00
12:35 AM,32.0,28.4,87,30.28,10.0,NNW,17.3,23.0,N/A,,Scattered Clouds,340,2013-04-24 05:35:00
12:55 AM,32.0,28.4,87,30.29,10.0,North,13.8,19.6,N/A,,Clear,350,2013-04-24 05:55:00
1:15 AM,32.0,28.4,87,30.30,10.0,North,8.1,-,N/A,,Scattered Clouds,350,2013-04-24 06:15:00
1:35 AM,32.0,28.4,87,30.31,10.0,NNW,11.5,-,N/A,,Mostly Cloudy,330,2013-04-24 06:35:00
1:55 AM,32.0,28.4,87,30.31,10.0,NNW,8.1,-,N/A,,Mostly Cloudy,330,2013-04-24 06:55:00
2:15 AM,32.0,28.4,87,30.32,10.0,NNW,8.1,-,N/A,,Scattered Clouds,340,2013-04-24 07:15:00
2:35 AM,30.2,28.4,93,30.31,10.0,NNW,5.8,-,N/A,,Clear,340,2013-04-24 07:35:00
2:55 AM,30.2,26.6,86,30.29,10.0,North,4.6,-,N/A,,Clear,360,2013-04-24 07:55:00
3:15 AM,28.4,26.6,93,30.28,10.0,NNW,5.8,-,N/A,,Clear,340,2013-04-24 08:15:00
3:35 AM,28.4,26.6,93,30.28,10.0,NW,5.8,-,N/A,,Clear,320,2013-04-24 08:35:00
3:55 AM,28.4,26.6,93,30.27,10.0,NNW,6.9,-,N/A,,Clear,330,2013-04-24 08:55:00
4:15 AM,28.4,26.6,93,30.28,10.0,NW,4.6,-,N/A,,Clear,320,2013-04-24 09:15:00
4:35 AM,28.4,24.8,86,30.28,7.0,NW,3.5,-,N/A,,Clear,310,2013-04-24 09:35:00
4:55 AM,28.4,26.6,93,30.29,10.0,West,3.5,-,N/A,,Clear,280,2013-04-24 09:55:00
5:15 AM,28.4,24.8,86,30.31,10.0,West,4.6,-,N/A,,Clear,270,2013-04-24 10:15:00
5:35 AM,28.4,24.8,86,30.30,10.0,Calm,Calm,-,N/A,,Clear,0,2013-04-24 10:35:00
5:55 AM,26.6,24.8,93,30.29,7.0,Calm,Calm,-,N/A,,Clear,0,2013-04-24 10:55:00
6:15 AM,26.6,23.0,86,30.30,7.0,SW,4.6,-,N/A,,Clear,230,2013-04-24 11:15:00
6:35 AM,26.6,24.8,93,30.30,7.0,West,5.8,-,N/A,,Clear,260,2013-04-24 11:35:00
6:55 AM,26.6,23.0,86,30.30,7.0,West,6.9,-,N/A,,Clear,270,2013-04-24 11:55:00
7:15 AM,26.6,23.0,86,30.30,7.0,West,4.6,-,N/A,,Clear,270,2013-04-24 12:15:00
7:35 AM,26.6,23.0,86,30.30,5.0,West,3.5,-,N/A,,Clear,280,2013-04-24 12:35:00
7:55 AM,26.6,23.0,86,30.30,5.0,WNW,4.6,-,N/A,,Clear,300,2013-04-24 12:55:00
8:15 AM,28.4,26.6,93,30.31,5.0,West,3.5,-,N/A,,Clear,260,2013-04-24 13:15:00
8:35 AM,30.2,26.6,86,30.33,5.0,WSW,5.8,-,N/A,,Clear,250,2013-04-24 13:35:00
8:55 AM,32.0,28.4,87,30.34,5.0,NW,5.8,-,N/A,,Clear,310,2013-04-24 13:55:00
9:15 AM,33.8,30.2,87,30.33,7.0,NW,5.8,-,N/A,,Clear,320,2013-04-24 14:15:00
9:35 AM,35.6,28.4,75,30.33,10.0,NNW,5.8,-,N/A,,Clear,340,2013-04-24 14:35:00
9:55 AM,37.4,28.4,70,30.32,10.0,NW,4.6,-,N/A,,Clear,320,2013-04-24 14:55:00
10:15 AM,39.2,28.4,65,30.31,10.0,North,5.8,-,N/A,,Clear,350,2013-04-24 15:15:00
10:35 AM,42.8,26.6,53,30.31,10.0,NNW,9.2,-,N/A,,Clear,330,2013-04-24 15:35:00
10:55 AM,42.8,23.0,46,30.32,10.0,NNW,8.1,-,N/A,,Clear,340,2013-04-24 15:55:00
11:15 AM,44.6,23.0,43,30.32,10.0,WNW,6.9,-,N/A,,Clear,290,2013-04-24 16:15:00
11:35 AM,46.4,23.0,40,30.33,10.0,NW,5.8,-,N/A,,Clear,310,2013-04-24 16:35:00
11:55 AM,46.4,23.0,40,30.33,10.0,North,5.8,-,N/A,,Clear,350,2013-04-24 16:55:00
12:15 PM,48.2,23.0,37,30.33,10.0,NNW,8.1,-,N/A,,Clear,330,2013-04-24 17:15:00
12:35 PM,48.2,21.2,34,30.32,10.0,Calm,Calm,-,N/A,,Clear,0,2013-04-24 17:35:00
12:55 PM,50.0,19.4,30,30.32,10.0,NW,3.5,-,N/A,,Clear,310,2013-04-24 17:55:00
1:15 PM,50.0,21.2,32,30.31,10.0,West,5.8,-,N/A,,Clear,260,2013-04-24 18:15:00
1:35 PM,51.8,21.2,30,30.29,10.0,NNW,5.8,-,N/A,,Clear,330,2013-04-24 18:35:00
1:55 PM,51.8,23.0,33,30.29,10.0,North,5.8,-,N/A,,Clear,360,2013-04-24 18:55:00
2:15 PM,51.8,21.2,30,30.28,10.0,North,3.5,-,N/A,,Clear,360,2013-04-24 19:15:00
2:35 PM,53.6,21.2,28,30.27,10.0,NW,3.5,-,N/A,,Clear,310,2013-04-24 19:35:00
2:55 PM,53.6,21.2,28,30.26,10.0,NNE,4.6,-,N/A,,Clear,20,2013-04-24 19:55:00
3:15 PM,53.6,23.0,30,30.26,10.0,East,4.6,-,N/A,,Clear,100,2013-04-24 20:15:00
3:35 PM,55.4,23.0,29,30.25,10.0,North,3.5,-,N/A,,Clear,360,2013-04-24 20:35:00
3:55 PM,55.4,21.2,26,30.24,10.0,Calm,Calm,-,N/A,,Clear,0,2013-04-24 20:55:00
4:15 PM,57.2,21.2,25,30.23,10.0,Calm,Calm,-,N/A,,Clear,0,2013-04-24 21:15:00
4:35 PM,57.2,23.0,27,30.23,10.0,Calm,Calm,-,N/A,,Clear,0,2013-04-24 21:35:00
4:55 PM,59.0,21.2,23,30.22,10.0,NE,3.5,-,N/A,,Clear,40,2013-04-24 21:55:00
5:15 PM,59.0,21.2,23,30.22,10.0,ENE,3.5,-,N/A,,Clear,60,2013-04-24 22:15:00
5:35 PM,59.0,19.4,22,30.22,10.0,Calm,Calm,-,N/A,,Clear,0,2013-04-24 22:35:00
5:55 PM,59.0,21.2,23,30.22,10.0,East,3.5,-,N/A,,Clear,90,2013-04-24 22:55:00
6:15 PM,59.0,23.0,25,30.22,10.0,Calm,Calm,-,N/A,,Clear,0,2013-04-24 23:15:00
6:35 PM,59.0,21.2,23,30.23,10.0,ENE,3.5,-,N/A,,Clear,70,2013-04-24 23:35:00
6:55 PM,59.0,23.0,25,30.23,10.0,ENE,3.5,-,N/A,,Clear,70,2013-04-24 23:55:00
7:15 PM,57.2,23.0,27,30.23,10.0,East,3.5,-,N/A,,Clear,80,2013-04-25 00:15:00
7:35 PM,55.4,26.6,33,30.23,10.0,ENE,3.5,-,N/A,,Clear,70,2013-04-25 00:35:00
7:55 PM,55.4,28.4,36,30.24,10.0,ENE,3.5,-,N/A,,Clear,60,2013-04-25 00:55:00
8:15 PM,53.6,26.6,35,30.24,10.0,East,4.6,-,N/A,,Clear,80,2013-04-25 01:15:00
8:35 PM,51.8,30.2,44,30.24,10.0,ESE,6.9,-,N/A,,Clear,110,2013-04-25 01:35:00
8:55 PM,50.0,30.2,47,30.25,10.0,ESE,8.1,-,N/A,,Clear,110,2013-04-25 01:55:00
9:15 PM,48.2,32.0,54,30.25,10.0,ESE,6.9,-,N/A,,Clear,110,2013-04-25 02:15:00
10:35 PM,46.4,32.0,57,30.29,10.0,SE,8.1,-,N/A,,Clear,130,2013-04-25 03:35:00
10:55 PM,44.6,32.0,61,30.29,10.0,SSE,5.8,-,N/A,,Clear,150,2013-04-25 03:55:00
11:15 PM,44.6,32.0,61,30.30,10.0,South,6.9,-,N/A,,Clear,170,2013-04-25 04:15:00
11:35 PM,42.8,32.0,66,30.30,10.0,SSE,5.8,-,N/A,,Clear,160,2013-04-25 04:35:00
11:55 PM,42.8,32.0,66,30.31,10.0,SSE,5.8,-,N/A,,Clear,150,2013-04-25 04:55:00